Tracking 31027 objects as of 19-Jul-2025
HD Live streaming from Space Station
objects crossing your sky now

STARLINK-30480

Track STARLINK-30480 now!
10-day predictions
STARLINK-30480 is classified as:


NORAD ID: 58069
Int'l Code: 2023-158U
Perigee: 489.2 km
Apogee: 491.2 km
Inclination: 43.0 °
Period: 94.3 minutes
Semi major axis: 6861 km
RCS: Unknown
Launch date: October 13, 2023
Source: United States (US)
Launch site: AIR FORCE EASTERN TEST RANGE (AFETR)
Your satellite tracking list
ICEYE-X27
Track 1 satellite(s)




NASA's NSSDC Master Catalog

Two Line Element Set (TLE):
1 58069U 23158U   25199.81856751  .00003576  00000-0  13940-3 0  9995
2 58069  42.9970 125.6043 0001494 274.8679  85.2002 15.27583469 99479
Source of the keplerian elements: AFSPC